When you browse on this site, cookies collect data to enhance your experience and personalize the content and advertising you see.
Visit our Privacy Policy to learn more. By continuing to use the site, you agree to this use of cookies and data.
  • In Hungary
  • List of Countries
  • For 7 days
  • Water Temperature
  • Satellite Maps
  • Weather Map
  • News
  • Weather Widgets
  • user-avatar
    Login

    Hourly Weather Sant Feliu de Llobregat

    Today, 23 January, Wednesday

    Time Temperature Precipitation Wind Pressure Humidity
    00:00 +7°C° 0 mm 2 mps 749 mmHg 42%
    01:00 +7°C° 0 mm 2 mps 748 mmHg 46%
    02:00 +6°C° 0 mm 2 mps 748 mmHg 51%
    03:00 +6°C° 0 mm 2 mps 747 mmHg 55%
    04:00 +6°C° 0 mm 2 mps 746 mmHg 58%
    05:00 +6°C° 0 mm 2 mps 746 mmHg 62%
    06:00 +5°C° 0 mm 2 mps 745 mmHg 65%
    07:00 +6°C° 0 mm 2 mps 745 mmHg 64%
    08:00 +6°C° 0 mm 2 mps 744 mmHg 63%
    09:00 +6°C° 0 mm 2 mps 744 mmHg 62%
    10:00 +8°C° 0 mm 3 mps 744 mmHg 60%
    11:00 +9°C° 0 mm 3 mps 743 mmHg 59%
    12:00 +10°C° 0 mm 3 mps 743 mmHg 57%
    13:00 +12°C° 0 mm 2 mps 743 mmHg 53%
    14:00 +13°C° 0 mm 2 mps 742 mmHg 49%
    15:00 +14°C° 0 mm 2 mps 742 mmHg 45%
    16:00 +13°C° 0 mm 2 mps 742 mmHg 51%
    17:00 +12°C° 0 mm 2 mps 743 mmHg 57%
    18:00 +10°C° 0 mm 3 mps 743 mmHg 63%
    19:00 +9°C° 0 mm 3 mps 744 mmHg 59%
    20:00 +9°C° 0 mm 3 mps 744 mmHg 55%
    21:00 +9°C° 0 mm 3 mps 745 mmHg 51%
    22:00 +7°C° 0 mm 4 mps 745 mmHg 50%
    23:00 +7°C° 0 mm 5 mps 745 mmHg 50%

    Tomorrow, 24 January, Thursday

    Time Temperature Precipitation Wind Pressure Humidity
    00:00 +7°C° 0 mm 6 mps 746 mmHg 49%
    01:00 +5°C° 0 mm 6 mps 746 mmHg 48%
    02:00 +5°C° 0 mm 7 mps 746 mmHg 46%
    03:00 +5°C° 0 mm 7 mps 746 mmHg 45%
    04:00 +5°C° 0 mm 9 mps 746 mmHg 40%
    05:00 +5°C° 0 mm 10 mps 746 mmHg 35%
    06:00 +3°C° 0 mm 11 mps 747 mmHg 30%
    07:00 +4°C° 0 mm 11 mps 747 mmHg 29%
    08:00 +4°C° 0 mm 12 mps 748 mmHg 28%
    09:00 +5°C° 0 mm 12 mps 748 mmHg 27%
    10:00 +7°C° 0 mm 11 mps 749 mmHg 25%
    11:00 +8°C° 0 mm 9 mps 749 mmHg 23%
    12:00 +10°C° 0 mm 8 mps 749 mmHg 20%
    13:00 +10°C° 0 mm 7 mps 749 mmHg 20%
    14:00 +11°C° 0 mm 6 mps 749 mmHg 19%
    15:00 +11°C° 0 mm 6 mps 749 mmHg 19%
    16:00 +10°C° 0 mm 5 mps 749 mmHg 21%
    17:00 +10°C° 0 mm 4 mps 750 mmHg 23%
    18:00 +9°C° 0 mm 3 mps 750 mmHg 25%
    19:00 +8°C° 0 mm 3 mps 751 mmHg 26%
    20:00 +8°C° 0 mm 3 mps 752 mmHg 27%
    21:00 +7°C° 0 mm 3 mps 752 mmHg 29%
    22:00 +7°C° 0 mm 3 mps 752 mmHg 30%
    23:00 +5°C° 0 mm 4 mps 753 mmHg 32%

    Day after tomorrow, 25 January, Friday

    Time Temperature Precipitation Wind Pressure Humidity
    00:00 +5°C° 0 mm 4 mps 753 mmHg 34%
    01:00 +5°C° 0 mm 4 mps 752 mmHg 34%
    02:00 +5°C° 0 mm 4 mps 752 mmHg 34%
    03:00 +5°C° 0 mm 4 mps 752 mmHg 34%
    04:00 +4°C° 0 mm 4 mps 751 mmHg 35%
    05:00 +4°C° 0 mm 3 mps 751 mmHg 35%
    06:00 +4°C° 0 mm 3 mps 751 mmHg 36%
    07:00 +4°C° 0 mm 3 mps 751 mmHg 37%
    08:00 +4°C° 0 mm 3 mps 751 mmHg 38%
    09:00 +5°C° 0 mm 3 mps 751 mmHg 40%
    10:00 +8°C° 0 mm 2 mps 751 mmHg 37%
    11:00 +9°C° 0 mm 2 mps 751 mmHg 35%
    12:00 +12°C° 0 mm 2 mps 752 mmHg 33%
    13:00 +13°C° 0 mm 2 mps 752 mmHg 32%
    14:00 +13°C° 0 mm 2 mps 752 mmHg 31%
    15:00 +14°C° 0 mm 2 mps 752 mmHg 30%
    16:00 +13°C° 0 mm 2 mps 752 mmHg 34%
    17:00 +12°C° 0 mm 2 mps 753 mmHg 37%
    18:00 +10°C° 0 mm 2 mps 753 mmHg 41%
    19:00 +10°C° 0 mm 2 mps 754 mmHg 42%
    20:00 +9°C° 0 mm 2 mps 755 mmHg 42%
    21:00 +9°C° 0 mm 2 mps 755 mmHg 43%
    22:00 +8°C° 0 mm 2 mps 756 mmHg 40%
    23:00 +8°C° 0 mm 3 mps 756 mmHg 38%

    26 January, Saturday

    Time Temperature Precipitation Wind Pressure Humidity
    00:00 +7°C° 0 mm 3 mps 756 mmHg 35%
    01:00 +7°C° 0 mm 3 mps 756 mmHg 36%
    02:00 +5°C° 0 mm 3 mps 756 mmHg 36%
    03:00 +5°C° 0 mm 4 mps 757 mmHg 36%
    04:00 +5°C° 0 mm 3 mps 757 mmHg 36%
    05:00 +4°C° 0 mm 3 mps 757 mmHg 37%
    06:00 +4°C° 0 mm 3 mps 757 mmHg 37%
    07:00 +4°C° 0 mm 3 mps 758 mmHg 35%
    08:00 +4°C° 0 mm 3 mps 758 mmHg 33%
    09:00 +5°C° 0 mm 3 mps 758 mmHg 31%
    10:00 +7°C° 0 mm 3 mps 758 mmHg 27%
    11:00 +9°C° 0 mm 2 mps 758 mmHg 22%
    12:00 +10°C° 0 mm 2 mps 758 mmHg 17%
    13:00 +12°C° 0 mm 2 mps 758 mmHg 18%
    14:00 +12°C° 0 mm 2 mps 757 mmHg 18%
    15:00 +13°C° 0 mm 2 mps 757 mmHg 18%
    16:00 +12°C° 0 mm 2 mps 757 mmHg 21%
    17:00 +10°C° 0 mm 2 mps 757 mmHg 25%
    18:00 +10°C° 0 mm 2 mps 757 mmHg 28%
    19:00 +9°C° 0 mm 2 mps 757 mmHg 30%
    20:00 +9°C° 0 mm 2 mps 757 mmHg 32%
    21:00 +9°C° 0 mm 1 mps 757 mmHg 34%
    22:00 +8°C° 0 mm 2 mps 757 mmHg 36%
    23:00 +8°C° 0 mm 2 mps 757 mmHg 38%

    27 January, Sunday

    Time Temperature Precipitation Wind Pressure Humidity
    00:00 +7°C° 0 mm 3 mps 757 mmHg 41%
    01:00 +7°C° 0 mm 3 mps 756 mmHg 40%
    02:00 +7°C° 0 mm 3 mps 756 mmHg 40%
    03:00 +7°C° 0 mm 2 mps 755 mmHg 40%
    04:00 +7°C° 0 mm 2 mps 755 mmHg 39%
    05:00 +6°C° 0 mm 2 mps 755 mmHg 38%
    06:00 +6°C° 0 mm 2 mps 754 mmHg 36%
    07:00 +7°C° 0 mm 2 mps 754 mmHg 35%
    08:00 +7°C° 0 mm 2 mps 754 mmHg 35%
    09:00 +7°C° 0 mm 2 mps 754 mmHg 34%
    10:00 +9°C° 0 mm 2 mps 754 mmHg 35%
    11:00 +10°C° 0 mm 2 mps 754 mmHg 36%
    12:00 +12°C° 0 mm 2 mps 754 mmHg 37%
    13:00 +12°C° 0 mm 2 mps 753 mmHg 38%
    14:00 +12°C° 0 mm 2 mps 753 mmHg 40%
    15:00 +12°C° 0 mm 2 mps 753 mmHg 42%
    16:00 +12°C° 0 mm 2 mps 753 mmHg 47%
    17:00 +10°C° 0 mm 2 mps 753 mmHg 52%
    18:00 +10°C° 0 mm 1 mps 753 mmHg 57%
    19:00 +10°C° 0 mm 1 mps 753 mmHg 60%
    20:00 +10°C° 0 mm 1 mps 754 mmHg 62%
    21:00 +10°C° 0 mm 1 mps 754 mmHg 65%
    22:00 +8°C° 0.1 mm 2 mps 754 mmHg 63%
    23:00 +8°C° 0.1 mm 2 mps 754 mmHg 61%

    28 January, Monday

    Time Temperature Precipitation Wind Pressure Humidity
    00:00 +8°C° 0.1 mm 2 mps 754 mmHg 59%
    01:00 +7°C° 0 mm 2 mps 754 mmHg 54%
    02:00 +7°C° 0 mm 2 mps 754 mmHg 49%
    03:00 +7°C° 0 mm 2 mps 754 mmHg 44%
    04:00 +7°C° 0 mm 2 mps 754 mmHg 44%
    05:00 +6°C° 0 mm 2 mps 754 mmHg 44%
    06:00 +6°C° 0 mm 2 mps 754 mmHg 44%
    07:00 +6°C° 0 mm 2 mps 754 mmHg 41%
    08:00 +7°C° 0 mm 2 mps 755 mmHg 39%
    09:00 +7°C° 0 mm 2 mps 755 mmHg 36%
    10:00 +8°C° 0 mm 3 mps 755 mmHg 32%
    11:00 +10°C° 0 mm 4 mps 755 mmHg 27%
    12:00 +10°C° 0 mm 5 mps 755 mmHg 22%
    13:00 +10°C° 0 mm 5 mps 755 mmHg 22%
    14:00 +10°C° 0 mm 5 mps 754 mmHg 21%
    15:00 +10°C° 0 mm 5 mps 754 mmHg 20%
    16:00 +8°C° 0 mm 6 mps 755 mmHg 22%
    17:00 +6°C° 0 mm 7 mps 755 mmHg 24%
    18:00 +5°C° 0 mm 8 mps 756 mmHg 26%
    19:00 +5°C° 0 mm 7 mps 756 mmHg 27%
    20:00 +4°C° 0 mm 6 mps 757 mmHg 29%
    21:00 +5°C° 0 mm 5 mps 758 mmHg 30%
    22:00 +5°C° 0 mm 5 mps 758 mmHg 31%
    23:00 +4°C° 0 mm 4 mps 758 mmHg 32%
    Show more